SBTTSBEG

Guest
Details From SBTT - Tabatinga
To SBEG - Eduardo Gomes
Flight Number -
Tags Generated
Created
Modified
Stats Distance 597 nm / 1,106 km
Max Altitude 0 ft / 0 m
Waypoints 4
Social Downloads 1
Likes 0
Share VATSIM

Download

Looking for another format? Having issues loading an existing format? Contact us
Advertisement - Login to hide

Notes

Generated

Route

SBTT TFE R2923 SBEG

ID Type Via Altitude Latitude Longitude Leg Dist Tot Dist Heading (true) Name
O SBTT APT - 0 ft / 0 m -4.25157˚ -69.94463˚ - 0 nm - -
TFE VOR - 0 ft / 0 m -3.38783˚ -64.72800˚ 316 nm 316 nm 81° / 80° TEFE VOR-DME
R2923 FIX - 0 ft / 0 m -3.03858˚ -60.06189˚ 280 nm 597 nm 86° / 86° -
O SBEG APT - 0 ft / 0 m -3.03858˚ -60.06189˚ 0 nm 597 nm 0° / 180° -

Altitude Profile

Advertisement - Login to hide

Weather


0- 5 10 15 20 25 30 35+ Temperature / ° C

Clouds and Precipitation
Forecast for 2018-05-27 00:00 UTC. Updated an hour ago

Ground ~20,000 ft ~40,000 ft Winds

SBTT

Details ICAO SBTT (TBT)
Name TABATINGA
Region Brazil
Timezone America/Eirunepe (UTC-5.0)
Stats Elevation 279 ft / 85 m (AMSL)
Location -4.255669° -69.935829°
Runways 1
Magnetic Variation 9.080° W

METAR

SBTT 262300Z 00000KT 9999 FEW020 FEW025TCU 24/22 Q1010 RERA

Decode

TAF

TAF SBTT 261600Z 2618/2718 18005KT 9999 BKN020 FEW025TCU TX29/2618Z TN20/2705Z BECMG 2619/2621 15002KT FEW020 BECMG 2623/2701 00000KT CAVOK BECMG 2705/2707 6000 BKN006 BECMG 2711/2713 18002KT 9999 BKN010 BECMG 2715/2717 17005KT SCT020 FEW025TCU RMK PDY

Decode

Departure Runways

ID Width Length Bearing (true) Bearing (mag) Surface Threshold Offset Overrun Length
12 105 ft / 32 m 7,067 ft / 2,154 m 115.07° 124.15° Asphalt 0 ft / 0 m 0 ft / 0 m
30 105 ft / 32 m 7,067 ft / 2,154 m 295.06° 304.14° Asphalt 0 ft / 0 m 0 ft / 0 m

SBEG

Details ICAO SBEG (MAO)
Name Eduardo Gomes
Region Brazil
Timezone America/Manaus (UTC-4.0)
Stats Elevation 264 ft / 80 m (AMSL)
Location -3.038611° -60.049723°
Runways 1
Magnetic Variation 15.814° W

METAR

SBEG 270000Z 00000KT 9999 SCT015 BKN100 25/24 Q1012

Decode

TAF

TAF SBEG 261600Z 2618/2718 14005KT 9999 SCT020 FEW025TCU TN23/2706Z TX32/2717Z BECMG 2619/2621 09005KT BECMG 2623/2701 00000KT FEW015 BECMG 2703/2705 31002KT CAVOK BECMG 2707/2709 9999 FEW010 BECMG 2711/2713 06005KT SCT015 BECMG 2715/2717 11010KT SCT020 FEW025TCU RMK PDY

Decode

Destination Runways

ID Width Length Bearing (true) Bearing (mag) Surface Threshold Offset Overrun Length
10 148 ft / 45 m 8,867 ft / 2,703 m 90.13° 105.94° Asphalt 0 ft / 0 m 215 ft / 66 m
28 148 ft / 45 m 8,867 ft / 2,703 m 270.13° 285.94° Asphalt 0 ft / 0 m 250 ft / 76 m

Approach Navaids

Runway Type Ident Frequency Range Bearing (true) Bearing (mag) Slope Elevation
10 Localiser IEG 110.30 MHz 18 nm / 33 km 90.55° 106.37° - 275 ft / 84 m (AMSL)
10 Glidescope IEG 110.30 MHz 10 nm / 19 km 90.13° 105.95° 3.04° 275 ft / 84 m (AMSL)
10 DME IEG 110.30 MHz 18 nm / 33 km - - - 264 ft / 80 m (AMSL)

Popular Alternatives